Year,Month,Day,Hour,Minute,Value (Times are PST for windgust in km/hr)
2018,06,28,00,00,1.60
2018,06,28,00,01,1.60
2018,06,28,00,05,3.20
2018,06,28,00,06,3.20
2018,06,28,00,07,1.60
2018,06,28,00,08,1.60
2018,06,28,00,09,3.20
2018,06,28,00,10,1.60
2018,06,28,00,12,1.60
2018,06,28,00,13,1.60
2018,06,28,00,15,1.60
2018,06,28,00,16,1.60
2018,06,28,00,17,1.60
2018,06,28,00,19,1.60
2018,06,28,00,20,1.60
2018,06,28,00,22,1.60
2018,06,28,00,23,3.20
2018,06,28,00,24,1.60
2018,06,28,00,28,1.60
2018,06,28,00,29,1.60
2018,06,28,00,31,1.60
2018,06,28,00,32,3.20
2018,06,28,00,33,1.60
2018,06,28,00,34,1.60
2018,06,28,00,35,1.60
2018,06,28,00,36,3.20
2018,06,28,00,37,3.20
2018,06,28,00,38,1.60
2018,06,28,00,39,1.60
2018,06,28,00,41,1.60
2018,06,28,00,42,1.60
2018,06,28,00,43,1.60
2018,06,28,00,45,1.60
2018,06,28,00,46,1.60
2018,06,28,00,47,3.20
2018,06,28,00,48,3.20
2018,06,28,00,49,3.20
2018,06,28,00,50,3.20
2018,06,28,00,54,1.60
2018,06,28,00,57,1.60
2018,06,28,00,58,1.60
2018,06,28,00,59,1.60
2018,06,28,01,02,1.60
2018,06,28,01,04,1.60
2018,06,28,01,05,1.60
2018,06,28,01,06,1.60
2018,06,28,01,07,3.20
2018,06,28,01,08,1.60
2018,06,28,01,09,1.60
2018,06,28,01,11,1.60
2018,06,28,01,12,1.60
2018,06,28,01,13,1.60
2018,06,28,01,14,1.60
2018,06,28,01,18,1.60
2018,06,28,01,20,1.60
2018,06,28,01,21,1.60
2018,06,28,01,22,1.60
2018,06,28,01,23,1.60
2018,06,28,01,24,3.20
2018,06,28,01,25,1.60
2018,06,28,01,26,4.80
2018,06,28,01,27,3.20
2018,06,28,01,28,3.20
2018,06,28,01,29,1.60
2018,06,28,01,30,1.60
2018,06,28,01,31,1.60
2018,06,28,01,32,1.60
2018,06,28,01,34,1.60
2018,06,28,01,35,3.20
2018,06,28,01,36,1.60
2018,06,28,01,39,1.60
2018,06,28,01,40,3.20
2018,06,28,01,41,3.20
2018,06,28,01,42,1.60
2018,06,28,01,44,4.80
2018,06,28,01,45,4.80
2018,06,28,01,47,1.60
2018,06,28,01,48,1.60
2018,06,28,01,49,1.60
2018,06,28,01,50,1.60
2018,06,28,01,55,3.20
2018,06,28,01,56,3.20
2018,06,28,01,57,1.60
2018,06,28,01,58,3.20
2018,06,28,01,59,3.20
2018,06,28,02,00,4.80
2018,06,28,02,01,3.20
2018,06,28,02,02,1.60
2018,06,28,02,03,1.60
2018,06,28,02,04,3.20
2018,06,28,02,05,3.20
2018,06,28,02,08,1.60
2018,06,28,02,09,1.60
2018,06,28,02,10,1.60
2018,06,28,02,11,1.60
2018,06,28,02,12,1.60
2018,06,28,02,13,1.60
2018,06,28,02,15,1.60
2018,06,28,02,16,1.60
2018,06,28,02,17,1.60
2018,06,28,02,18,1.60
2018,06,28,02,20,3.20
2018,06,28,02,21,3.20
2018,06,28,02,22,1.60
2018,06,28,02,23,1.60
2018,06,28,02,24,1.60
2018,06,28,02,25,1.60
2018,06,28,02,26,1.60
2018,06,28,02,27,1.60
2018,06,28,02,28,1.60
2018,06,28,02,29,1.60
2018,06,28,02,30,1.60
2018,06,28,02,32,1.60
2018,06,28,02,33,3.20
2018,06,28,02,34,3.20
2018,06,28,02,35,1.60
2018,06,28,02,36,1.60
2018,06,28,02,37,3.20
2018,06,28,02,38,1.60
2018,06,28,02,39,3.20
2018,06,28,02,40,3.20
2018,06,28,02,41,1.60
2018,06,28,02,42,1.60
2018,06,28,02,43,1.60
2018,06,28,02,44,3.20
2018,06,28,02,45,3.20
2018,06,28,02,46,1.60
2018,06,28,02,47,1.60
2018,06,28,02,48,1.60
2018,06,28,02,49,1.60
2018,06,28,02,50,3.20
2018,06,28,02,51,3.20
2018,06,28,02,52,3.20
2018,06,28,02,53,3.20
2018,06,28,02,54,1.60
2018,06,28,02,55,4.80
2018,06,28,02,56,3.20
2018,06,28,02,57,1.60
2018,06,28,02,58,4.80
2018,06,28,02,59,4.80
2018,06,28,03,00,3.20
2018,06,28,03,01,3.20
2018,06,28,03,02,1.60
2018,06,28,03,03,1.60
2018,06,28,03,06,1.60
2018,06,28,03,07,1.60
2018,06,28,03,09,3.20
2018,06,28,03,10,1.60
2018,06,28,03,11,1.60
2018,06,28,03,12,1.60
2018,06,28,03,13,1.60
2018,06,28,03,14,1.60
2018,06,28,03,15,1.60
2018,06,28,03,16,1.60
2018,06,28,03,17,1.60
2018,06,28,03,18,1.60
2018,06,28,03,19,1.60
2018,06,28,03,20,1.60
2018,06,28,03,22,1.60
2018,06,28,03,25,1.60
2018,06,28,03,27,3.20
2018,06,28,03,28,1.60
2018,06,28,03,29,1.60
2018,06,28,03,30,1.60
2018,06,28,03,31,3.20
2018,06,28,03,32,3.20
2018,06,28,03,33,1.60
2018,06,28,03,34,3.20
2018,06,28,03,35,1.60
2018,06,28,03,36,1.60
2018,06,28,03,37,1.60
2018,06,28,03,38,1.60
2018,06,28,03,39,1.60
2018,06,28,03,41,1.60
2018,06,28,03,43,1.60
2018,06,28,03,44,3.20
2018,06,28,03,45,1.60
2018,06,28,03,46,3.20
2018,06,28,03,47,3.20
2018,06,28,03,48,3.20
2018,06,28,03,49,1.60
2018,06,28,03,50,1.60
2018,06,28,03,51,1.60
2018,06,28,03,52,1.60
2018,06,28,03,53,1.60
2018,06,28,03,54,1.60
2018,06,28,03,55,3.20
2018,06,28,03,56,1.60
2018,06,28,03,57,6.40
2018,06,28,03,58,3.20
2018,06,28,03,59,4.80
2018,06,28,04,00,3.20
2018,06,28,04,01,4.80
2018,06,28,04,02,3.20
2018,06,28,04,03,6.40
2018,06,28,04,04,8.10
2018,06,28,04,05,6.40
2018,06,28,04,06,1.60
2018,06,28,04,07,3.20
2018,06,28,04,08,4.80
2018,06,28,04,09,3.20
2018,06,28,04,10,4.80
2018,06,28,04,11,4.80
2018,06,28,04,12,4.80
2018,06,28,04,13,6.40
2018,06,28,04,14,6.40
2018,06,28,04,15,4.80
2018,06,28,04,16,4.80
2018,06,28,04,17,3.20
2018,06,28,04,18,3.20
2018,06,28,04,19,1.60
2018,06,28,04,21,1.60
2018,06,28,04,22,4.80
2018,06,28,04,23,3.20
2018,06,28,04,24,3.20
2018,06,28,04,25,3.20
2018,06,28,04,26,1.60
2018,06,28,04,27,3.20
2018,06,28,04,28,3.20
2018,06,28,04,29,3.20
2018,06,28,04,30,4.80
2018,06,28,04,31,4.80
2018,06,28,04,32,6.40
2018,06,28,04,33,3.20
2018,06,28,04,34,3.20
2018,06,28,04,35,3.20
2018,06,28,04,36,3.20
2018,06,28,04,37,3.20
2018,06,28,04,38,3.20
2018,06,28,04,39,4.80
2018,06,28,04,40,4.80
2018,06,28,04,41,4.80
2018,06,28,04,42,3.20
2018,06,28,04,43,4.80
2018,06,28,04,44,3.20
2018,06,28,04,45,6.40
2018,06,28,04,46,4.80
2018,06,28,04,47,1.60
2018,06,28,04,48,1.60
2018,06,28,04,49,3.20
2018,06,28,04,50,3.20
2018,06,28,04,51,3.20
2018,06,28,04,52,1.60
2018,06,28,04,53,1.60
2018,06,28,04,54,4.80
2018,06,28,04,55,4.80
2018,06,28,04,56,4.80
2018,06,28,04,57,3.20
2018,06,28,04,58,3.20
2018,06,28,04,59,1.60
2018,06,28,05,00,1.60
2018,06,28,05,01,4.80
2018,06,28,05,02,4.80
2018,06,28,05,03,1.60
2018,06,28,05,05,3.20
2018,06,28,05,06,4.80
2018,06,28,05,07,6.40
2018,06,28,05,08,3.20
2018,06,28,05,09,3.20
2018,06,28,05,10,3.20
2018,06,28,05,11,3.20
2018,06,28,05,12,3.20
2018,06,28,05,13,3.20
2018,06,28,05,14,6.40
2018,06,28,05,15,1.60
2018,06,28,05,16,4.80
2018,06,28,05,17,6.40
2018,06,28,05,18,4.80
2018,06,28,05,19,8.10
2018,06,28,05,20,4.80
2018,06,28,05,21,6.40
2018,06,28,05,22,6.40
2018,06,28,05,23,6.40
2018,06,28,05,24,4.80
2018,06,28,05,25,4.80
2018,06,28,05,26,3.20
2018,06,28,05,27,3.20
2018,06,28,05,28,4.80
2018,06,28,05,29,4.80
2018,06,28,05,30,1.60
2018,06,28,05,31,3.20
2018,06,28,05,32,1.60
2018,06,28,05,33,3.20
2018,06,28,05,34,3.20
2018,06,28,05,35,3.20
2018,06,28,05,36,3.20
2018,06,28,05,37,3.20
2018,06,28,05,38,4.80
2018,06,28,05,39,1.60
2018,06,28,05,40,1.60
2018,06,28,05,41,3.20
2018,06,28,05,42,1.60
2018,06,28,05,43,3.20
2018,06,28,05,44,3.20
2018,06,28,05,45,1.60
2018,06,28,05,46,8.10
2018,06,28,05,47,4.80
2018,06,28,05,48,3.20
2018,06,28,05,49,1.60
2018,06,28,05,50,3.20
2018,06,28,05,51,4.80
2018,06,28,05,52,3.20
2018,06,28,05,53,1.60
2018,06,28,05,54,3.20
2018,06,28,05,55,3.20
2018,06,28,05,56,1.60
2018,06,28,05,57,1.60
2018,06,28,05,58,1.60
2018,06,28,05,59,1.60
2018,06,28,06,00,1.60
2018,06,28,06,01,1.60
2018,06,28,06,02,4.80
2018,06,28,06,03,6.40
2018,06,28,06,04,3.20
2018,06,28,06,05,8.10
2018,06,28,06,06,1.60
2018,06,28,06,07,3.20
2018,06,28,06,08,4.80
2018,06,28,06,09,3.20
2018,06,28,06,10,1.60
2018,06,28,06,15,1.60
2018,06,28,06,16,1.60
2018,06,28,06,17,1.60
2018,06,28,06,18,1.60
2018,06,28,06,19,1.60
2018,06,28,06,23,1.60
2018,06,28,06,24,1.60
2018,06,28,06,25,1.60
2018,06,28,06,26,3.20
2018,06,28,06,27,3.20
2018,06,28,06,28,1.60
2018,06,28,06,29,3.20
2018,06,28,06,30,3.20
2018,06,28,06,31,1.60
2018,06,28,06,32,1.60
2018,06,28,06,33,1.60
2018,06,28,06,34,1.60
2018,06,28,06,36,1.60
2018,06,28,06,37,3.20
2018,06,28,06,38,1.60
2018,06,28,06,40,1.60
2018,06,28,06,41,1.60
2018,06,28,06,42,1.60
2018,06,28,06,43,1.60
2018,06,28,06,44,3.20
2018,06,28,06,45,4.80
2018,06,28,06,46,3.20
2018,06,28,06,47,3.20
2018,06,28,06,48,3.20
2018,06,28,06,49,1.60
2018,06,28,06,50,1.60
2018,06,28,06,51,1.60
2018,06,28,06,52,4.80
2018,06,28,06,53,3.20
2018,06,28,06,54,1.60
2018,06,28,06,55,1.60
2018,06,28,06,56,1.60
2018,06,28,06,57,1.60
2018,06,28,06,58,1.60
2018,06,28,06,59,1.60
2018,06,28,07,00,1.60
2018,06,28,07,01,6.40
2018,06,28,07,02,4.80
2018,06,28,07,03,3.20
2018,06,28,07,04,3.20
2018,06,28,07,05,1.60
2018,06,28,07,06,3.20
2018,06,28,07,07,3.20
2018,06,28,07,08,1.60
2018,06,28,07,09,1.60
2018,06,28,07,10,6.40
2018,06,28,07,11,4.80
2018,06,28,07,12,3.20
2018,06,28,07,13,1.60
2018,06,28,07,14,1.60
2018,06,28,07,15,1.60
2018,06,28,07,16,3.20
2018,06,28,07,17,3.20
2018,06,28,07,18,3.20
2018,06,28,07,19,3.20
2018,06,28,07,20,3.20
2018,06,28,07,21,3.20
2018,06,28,07,22,4.80
2018,06,28,07,23,3.20
2018,06,28,07,24,1.60
2018,06,28,07,25,3.20
2018,06,28,07,26,1.60
2018,06,28,07,27,6.40
2018,06,28,07,28,6.40
2018,06,28,07,29,1.60
2018,06,28,07,30,3.20
2018,06,28,07,31,1.60
2018,06,28,07,32,1.60
2018,06,28,07,33,1.60
2018,06,28,07,34,3.20
2018,06,28,07,35,3.20
2018,06,28,07,36,3.20
2018,06,28,07,37,3.20
2018,06,28,07,38,1.60
2018,06,28,07,39,3.20
2018,06,28,07,40,3.20
2018,06,28,07,41,3.20
2018,06,28,07,42,1.60
2018,06,28,07,43,6.40
2018,06,28,07,44,6.40
2018,06,28,07,45,1.60
2018,06,28,07,46,1.60
2018,06,28,07,47,3.20
2018,06,28,07,48,3.20
2018,06,28,07,49,3.20
2018,06,28,07,50,6.40
2018,06,28,07,51,4.80
2018,06,28,07,52,4.80
2018,06,28,07,53,4.80
2018,06,28,07,54,4.80
2018,06,28,07,55,4.80
2018,06,28,07,56,4.80
2018,06,28,07,57,4.80
2018,06,28,07,58,4.80
2018,06,28,07,59,3.20
2018,06,28,08,00,8.10
2018,06,28,08,01,6.40
2018,06,28,08,02,1.60
2018,06,28,08,03,4.80
2018,06,28,08,04,3.20
2018,06,28,08,05,4.80
2018,06,28,08,06,3.20
2018,06,28,08,07,4.80
2018,06,28,08,08,3.20
2018,06,28,08,09,3.20
2018,06,28,08,10,3.20
2018,06,28,08,11,4.80
2018,06,28,08,12,8.10
2018,06,28,08,13,6.40
2018,06,28,08,14,3.20
2018,06,28,08,15,3.20
2018,06,28,08,16,3.20
2018,06,28,08,17,1.60
2018,06,28,08,18,3.20
2018,06,28,08,19,1.60
2018,06,28,08,20,1.60
2018,06,28,08,21,3.20
2018,06,28,08,22,1.60
2018,06,28,08,23,3.20
2018,06,28,08,24,1.60
2018,06,28,08,25,3.20
2018,06,28,08,26,1.60
2018,06,28,08,27,3.20
2018,06,28,08,28,6.40
2018,06,28,08,29,4.80
2018,06,28,08,30,3.20
2018,06,28,08,31,3.20
2018,06,28,08,32,3.20
2018,06,28,08,33,3.20
2018,06,28,08,34,1.60
2018,06,28,08,35,3.20
2018,06,28,08,36,4.80
2018,06,28,08,37,4.80
2018,06,28,08,38,1.60
2018,06,28,08,39,3.20
2018,06,28,08,40,6.40
2018,06,28,08,41,3.20
2018,06,28,08,42,3.20
2018,06,28,08,43,4.80
2018,06,28,08,44,3.20
2018,06,28,08,45,4.80
2018,06,28,08,46,4.80
2018,06,28,08,47,3.20
2018,06,28,08,48,3.20
2018,06,28,08,49,3.20
2018,06,28,08,50,1.60
2018,06,28,08,51,1.60
2018,06,28,08,52,3.20
2018,06,28,08,53,3.20
2018,06,28,08,54,3.20
2018,06,28,08,55,3.20
2018,06,28,08,56,3.20
2018,06,28,08,57,1.60
2018,06,28,08,58,1.60
2018,06,28,08,59,3.20
2018,06,28,09,00,4.80
2018,06,28,09,01,4.80
2018,06,28,09,02,3.20
2018,06,28,09,03,1.60
2018,06,28,09,04,3.20
2018,06,28,09,05,4.80
2018,06,28,09,06,1.60
2018,06,28,09,07,3.20
2018,06,28,09,08,1.60
2018,06,28,09,09,3.20
2018,06,28,09,10,1.60
2018,06,28,09,11,3.20
2018,06,28,09,12,4.80
2018,06,28,09,13,3.20
2018,06,28,09,14,1.60
2018,06,28,09,15,3.20
2018,06,28,09,16,4.80
2018,06,28,09,17,8.10
2018,06,28,09,18,9.60
2018,06,28,09,19,8.10
2018,06,28,09,20,4.80
2018,06,28,09,21,3.20
2018,06,28,09,22,3.20
2018,06,28,09,23,1.60
2018,06,28,09,24,8.10
2018,06,28,09,25,3.20
2018,06,28,09,26,3.20
2018,06,28,09,27,3.20
2018,06,28,09,28,3.20
2018,06,28,09,29,3.20
2018,06,28,09,30,4.80
2018,06,28,09,31,3.20
2018,06,28,09,32,4.80
2018,06,28,09,33,3.20
2018,06,28,09,34,3.20
2018,06,28,09,35,3.20
2018,06,28,09,36,1.60
2018,06,28,09,37,1.60
2018,06,28,09,38,3.20
2018,06,28,09,39,4.80
2018,06,28,09,40,4.80
2018,06,28,09,41,3.20
2018,06,28,09,42,3.20
2018,06,28,09,43,6.40
2018,06,28,09,44,8.10
2018,06,28,09,45,4.80
2018,06,28,09,46,3.20
2018,06,28,09,47,3.20
2018,06,28,09,48,1.60
2018,06,28,09,49,6.40
2018,06,28,09,50,4.80
2018,06,28,09,51,1.60
2018,06,28,09,52,8.10
2018,06,28,09,53,4.80
2018,06,28,09,54,6.40
2018,06,28,09,55,3.20
2018,06,28,09,56,3.20
2018,06,28,09,57,6.40
2018,06,28,09,58,3.20
2018,06,28,09,59,3.20
2018,06,28,10,00,6.40
2018,06,28,10,01,6.40
2018,06,28,10,02,4.80
2018,06,28,10,03,8.10
2018,06,28,10,04,8.10
2018,06,28,10,05,8.10
2018,06,28,10,06,4.80
2018,06,28,10,07,3.20
2018,06,28,10,08,3.20
2018,06,28,10,09,3.20
2018,06,28,10,10,3.20
2018,06,28,10,11,6.40
2018,06,28,10,12,8.10
2018,06,28,10,13,8.10
2018,06,28,10,14,6.40
2018,06,28,10,15,6.40
2018,06,28,10,16,8.10
2018,06,28,10,17,6.40
2018,06,28,10,18,4.80
2018,06,28,10,19,8.10
2018,06,28,10,20,4.80
2018,06,28,10,21,1.60
2018,06,28,10,22,3.20
2018,06,28,10,23,9.60
2018,06,28,10,24,4.80
2018,06,28,10,25,6.40
2018,06,28,10,26,9.60
2018,06,28,10,27,9.60
2018,06,28,10,28,3.20
2018,06,28,10,29,6.40
2018,06,28,10,30,6.40
2018,06,28,10,31,12.90
2018,06,28,10,32,11.30
2018,06,28,10,33,6.40
2018,06,28,10,34,4.80
2018,06,28,10,35,1.60
2018,06,28,10,36,4.80
2018,06,28,10,37,8.10
2018,06,28,10,38,4.80
2018,06,28,10,39,3.20
2018,06,28,10,40,3.20
2018,06,28,10,41,4.80
2018,06,28,10,42,4.80
2018,06,28,10,43,6.40
2018,06,28,10,44,3.20
2018,06,28,10,45,3.20
2018,06,28,10,46,3.20
2018,06,28,10,47,1.60
2018,06,28,10,48,3.20
2018,06,28,10,49,3.20
2018,06,28,10,50,1.60
2018,06,28,10,51,3.20
2018,06,28,10,52,6.40
2018,06,28,10,53,8.10
2018,06,28,10,54,6.40
2018,06,28,10,55,6.40
2018,06,28,10,56,6.40
2018,06,28,10,57,6.40
2018,06,28,10,58,9.60
2018,06,28,10,59,11.30
2018,06,28,11,00,14.50
2018,06,28,11,01,9.60
2018,06,28,11,02,3.20
2018,06,28,11,03,6.40
2018,06,28,11,04,6.40
2018,06,28,11,05,6.40
2018,06,28,11,06,4.80
2018,06,28,11,07,6.40
2018,06,28,11,08,9.60
2018,06,28,11,09,6.40
2018,06,28,11,10,4.80
2018,06,28,11,11,4.80
2018,06,28,11,12,6.40
2018,06,28,11,13,9.60
2018,06,28,11,14,8.10
2018,06,28,11,15,4.80
2018,06,28,11,16,3.20
2018,06,28,11,17,6.40
2018,06,28,11,18,8.10
2018,06,28,11,19,6.40
2018,06,28,11,20,6.40
2018,06,28,11,21,6.40
2018,06,28,11,22,8.10
2018,06,28,11,23,6.40
2018,06,28,11,24,4.80
2018,06,28,11,25,4.80
2018,06,28,11,26,4.80
2018,06,28,11,27,9.60
2018,06,28,11,28,9.60
2018,06,28,11,29,14.50
2018,06,28,11,30,12.90
2018,06,28,11,31,4.80
2018,06,28,11,32,4.80
2018,06,28,11,33,4.80
2018,06,28,11,34,9.60
2018,06,28,11,35,9.60
2018,06,28,11,36,9.60
2018,06,28,11,37,8.10
2018,06,28,11,38,6.40
2018,06,28,11,39,9.60
2018,06,28,11,40,16.10
2018,06,28,11,41,6.40
2018,06,28,11,42,4.80
2018,06,28,11,43,4.80
2018,06,28,11,44,3.20
2018,06,28,11,45,6.40
2018,06,28,11,46,6.40
2018,06,28,11,47,11.30
2018,06,28,11,48,6.40
2018,06,28,11,49,3.20
2018,06,28,11,50,3.20
2018,06,28,11,51,3.20
2018,06,28,11,52,3.20
2018,06,28,11,53,6.40
2018,06,28,11,54,6.40
2018,06,28,11,55,3.20
2018,06,28,11,56,6.40
2018,06,28,11,57,11.30
2018,06,28,11,58,6.40
2018,06,28,11,59,6.40
2018,06,28,12,00,4.80
2018,06,28,12,01,3.20
2018,06,28,12,02,8.10
2018,06,28,12,03,3.20
2018,06,28,12,04,9.60
2018,06,28,12,05,11.30
2018,06,28,12,06,3.20
2018,06,28,12,07,3.20
2018,06,28,12,08,11.30
2018,06,28,12,09,9.60
2018,06,28,12,10,11.30
2018,06,28,12,11,3.20
2018,06,28,12,12,4.80
2018,06,28,12,13,3.20
2018,06,28,12,14,6.40
2018,06,28,12,15,6.40
2018,06,28,12,16,8.10
2018,06,28,12,17,4.80
2018,06,28,12,18,6.40
2018,06,28,12,19,6.40
2018,06,28,12,20,4.80
2018,06,28,12,21,1.60
2018,06,28,12,22,4.80
2018,06,28,12,23,6.40
2018,06,28,12,24,4.80
2018,06,28,12,25,3.20
2018,06,28,12,26,3.20
2018,06,28,12,27,4.80
2018,06,28,12,28,8.10
2018,06,28,12,29,6.40
2018,06,28,12,30,8.10
2018,06,28,12,31,4.80
2018,06,28,12,32,12.90
2018,06,28,12,33,12.90
2018,06,28,12,34,8.10
2018,06,28,12,35,4.80
2018,06,28,12,36,6.40
2018,06,28,12,37,4.80
2018,06,28,12,38,4.80
2018,06,28,12,39,6.40
2018,06,28,12,40,6.40
2018,06,28,12,41,6.40
2018,06,28,12,42,11.30
2018,06,28,12,43,12.90
2018,06,28,12,44,6.40
2018,06,28,12,45,11.30
2018,06,28,12,46,14.50
2018,06,28,12,47,3.20
2018,06,28,12,48,4.80
2018,06,28,12,49,4.80
2018,06,28,12,50,9.60
2018,06,28,12,51,6.40
2018,06,28,12,52,4.80
2018,06,28,12,53,4.80
2018,06,28,12,54,8.10
2018,06,28,12,55,8.10
2018,06,28,12,56,11.30
2018,06,28,12,57,6.40
2018,06,28,12,58,9.60
2018,06,28,12,59,6.40
2018,06,28,13,00,12.90
2018,06,28,13,01,6.40
2018,06,28,13,02,11.30
2018,06,28,13,03,8.10
2018,06,28,13,04,9.60
2018,06,28,13,05,9.60
2018,06,28,13,06,6.40
2018,06,28,13,07,9.60
2018,06,28,13,08,6.40
2018,06,28,13,09,3.20
2018,06,28,13,10,3.20
2018,06,28,13,11,6.40
2018,06,28,13,12,24.20
2018,06,28,13,13,17.70
2018,06,28,13,14,14.50
2018,06,28,13,15,14.50
2018,06,28,13,16,14.50
2018,06,28,13,17,6.40
2018,06,28,13,18,12.90
2018,06,28,13,19,16.10
2018,06,28,13,20,17.70
2018,06,28,13,21,8.10
2018,06,28,13,22,4.80
2018,06,28,13,23,11.30
2018,06,28,13,24,19.30
2018,06,28,13,25,6.40
2018,06,28,13,26,12.90
2018,06,28,13,27,16.10
2018,06,28,13,28,16.10
2018,06,28,13,29,11.30
2018,06,28,13,30,12.90
2018,06,28,13,31,9.60
2018,06,28,13,32,6.40
2018,06,28,13,33,6.40
2018,06,28,13,34,3.20
2018,06,28,13,35,6.40
2018,06,28,13,36,16.10
2018,06,28,13,37,16.10
2018,06,28,13,38,6.40
2018,06,28,13,39,3.20
2018,06,28,13,40,6.40
2018,06,28,13,41,6.40
2018,06,28,13,42,4.80
2018,06,28,13,43,8.10
2018,06,28,13,44,11.30
2018,06,28,13,45,6.40
2018,06,28,13,46,6.40
2018,06,28,13,47,8.10
2018,06,28,13,48,11.30
2018,06,28,13,49,17.70
2018,06,28,13,50,16.10
2018,06,28,13,51,4.80
2018,06,28,13,52,9.60
2018,06,28,13,53,9.60
2018,06,28,13,54,4.80
2018,06,28,13,55,3.20
2018,06,28,13,56,4.80
2018,06,28,13,57,6.40
2018,06,28,13,58,6.40
2018,06,28,13,59,4.80
2018,06,28,14,00,3.20
2018,06,28,14,01,3.20
2018,06,28,14,02,9.60
2018,06,28,14,03,8.10
2018,06,28,14,04,6.40
2018,06,28,14,05,8.10
2018,06,28,14,06,4.80
2018,06,28,14,07,6.40
2018,06,28,14,08,8.10
2018,06,28,14,09,6.40
2018,06,28,14,10,3.20
2018,06,28,14,11,3.20
2018,06,28,14,12,3.20
2018,06,28,14,13,11.30
2018,06,28,14,14,6.40
2018,06,28,14,15,3.20
2018,06,28,14,16,11.30
2018,06,28,14,17,11.30
2018,06,28,14,18,11.30
2018,06,28,14,19,9.60
2018,06,28,14,20,8.10
2018,06,28,14,21,3.20
2018,06,28,14,22,4.80
2018,06,28,14,23,3.20
2018,06,28,14,24,4.80
2018,06,28,14,25,6.40
2018,06,28,14,26,9.60
2018,06,28,14,27,8.10
2018,06,28,14,28,4.80
2018,06,28,14,29,6.40
2018,06,28,14,30,8.10
2018,06,28,14,31,14.50
2018,06,28,14,32,8.10
2018,06,28,14,33,4.80
2018,06,28,14,34,3.20
2018,06,28,14,35,3.20
2018,06,28,14,36,8.10
2018,06,28,14,37,4.80
2018,06,28,14,38,3.20
2018,06,28,14,39,4.80
2018,06,28,14,40,8.10
2018,06,28,14,41,17.70
2018,06,28,14,42,12.90
2018,06,28,14,43,11.30
2018,06,28,14,44,4.80
2018,06,28,14,45,20.90
2018,06,28,14,46,16.10
2018,06,28,14,47,6.40
2018,06,28,14,48,4.80
2018,06,28,14,49,4.80
2018,06,28,14,50,4.80
2018,06,28,14,51,6.40
2018,06,28,14,52,8.10
2018,06,28,14,53,6.40
2018,06,28,14,54,11.30
2018,06,28,14,55,8.10
2018,06,28,14,56,6.40
2018,06,28,14,57,6.40
2018,06,28,14,58,8.10
2018,06,28,14,59,8.10
2018,06,28,15,00,6.40
2018,06,28,15,01,8.10
2018,06,28,15,02,4.80
2018,06,28,15,03,6.40
2018,06,28,15,04,12.90
2018,06,28,15,05,3.20
2018,06,28,15,06,9.60
2018,06,28,15,07,11.30
2018,06,28,15,08,6.40
2018,06,28,15,09,8.10
2018,06,28,15,10,8.10
2018,06,28,15,11,4.80
2018,06,28,15,12,6.40
2018,06,28,15,13,9.60
2018,06,28,15,14,8.10
2018,06,28,15,15,8.10
2018,06,28,15,16,4.80
2018,06,28,15,17,6.40
2018,06,28,15,18,4.80
2018,06,28,15,19,16.10
2018,06,28,15,20,11.30
2018,06,28,15,21,6.40
2018,06,28,15,22,9.60
2018,06,28,15,23,11.30
2018,06,28,15,24,14.50
2018,06,28,15,25,14.50
2018,06,28,15,26,14.50
2018,06,28,15,27,16.10
2018,06,28,15,28,12.90
2018,06,28,15,29,9.60
2018,06,28,15,30,16.10
2018,06,28,15,31,17.70
2018,06,28,15,32,6.40
2018,06,28,15,33,11.30
2018,06,28,15,34,9.60
2018,06,28,15,35,9.60
2018,06,28,15,36,8.10
2018,06,28,15,37,8.10
2018,06,28,15,38,4.80
2018,06,28,15,39,11.30
2018,06,28,15,40,11.30
2018,06,28,15,41,6.40
2018,06,28,15,42,8.10
2018,06,28,15,43,6.40
2018,06,28,15,44,12.90
2018,06,28,15,45,12.90
2018,06,28,15,46,6.40
2018,06,28,15,47,8.10
2018,06,28,15,48,14.50
2018,06,28,15,49,4.80
2018,06,28,15,50,4.80
2018,06,28,15,51,6.40
2018,06,28,15,52,11.30
2018,06,28,15,53,12.90
2018,06,28,15,54,6.40
2018,06,28,15,55,6.40
2018,06,28,15,56,9.60
2018,06,28,15,57,16.10
2018,06,28,15,58,12.90
2018,06,28,15,59,14.50
2018,06,28,16,00,14.50
2018,06,28,16,01,12.90
2018,06,28,16,02,9.60
2018,06,28,16,03,6.40
2018,06,28,16,04,4.80
2018,06,28,16,05,9.60
2018,06,28,16,06,16.10
2018,06,28,16,07,8.10
2018,06,28,16,08,6.40
2018,06,28,16,09,19.30
2018,06,28,16,10,19.30
2018,06,28,16,11,20.90
2018,06,28,16,12,8.10
2018,06,28,16,13,12.90
2018,06,28,16,14,22.50
2018,06,28,16,15,24.20
2018,06,28,16,16,17.70
2018,06,28,16,17,17.70
2018,06,28,16,18,17.70
2018,06,28,16,19,14.50
2018,06,28,16,20,12.90
2018,06,28,16,21,14.50
2018,06,28,16,22,14.50
2018,06,28,16,23,9.60
2018,06,28,16,24,19.30
2018,06,28,16,25,8.10
2018,06,28,16,26,17.70
2018,06,28,16,27,9.60
2018,06,28,16,28,14.50
2018,06,28,16,29,22.50
2018,06,28,16,30,12.90
2018,06,28,16,31,9.60
2018,06,28,16,32,4.80
2018,06,28,16,33,1.60
2018,06,28,16,34,8.10
2018,06,28,16,35,16.10
2018,06,28,16,36,9.60
2018,06,28,16,37,12.90
2018,06,28,16,38,8.10
2018,06,28,16,39,8.10
2018,06,28,16,40,9.60
2018,06,28,16,41,12.90
2018,06,28,16,42,12.90
2018,06,28,16,43,4.80
2018,06,28,16,44,6.40
2018,06,28,16,45,12.90
2018,06,28,16,46,17.70
2018,06,28,16,47,12.90
2018,06,28,16,48,14.50
2018,06,28,16,49,20.90
2018,06,28,16,50,6.40
2018,06,28,16,51,9.60
2018,06,28,16,52,8.10
2018,06,28,16,53,8.10
2018,06,28,16,54,6.40
2018,06,28,16,55,9.60
2018,06,28,16,56,16.10
2018,06,28,16,57,9.60
2018,06,28,16,58,17.70
2018,06,28,16,59,19.30
2018,06,28,17,00,17.70
2018,06,28,17,01,17.70
2018,06,28,17,02,6.40
2018,06,28,17,03,17.70
2018,06,28,17,04,9.60
2018,06,28,17,05,6.40
2018,06,28,17,06,14.50
2018,06,28,17,07,9.60
2018,06,28,17,08,4.80
2018,06,28,17,09,4.80
2018,06,28,17,10,4.80
2018,06,28,17,11,3.20
2018,06,28,17,12,14.50
2018,06,28,17,13,11.30
2018,06,28,17,14,6.40
2018,06,28,17,15,6.40
2018,06,28,17,16,9.60
2018,06,28,17,17,9.60
2018,06,28,17,18,16.10
2018,06,28,17,19,8.10
2018,06,28,17,20,4.80
2018,06,28,17,21,8.10
2018,06,28,17,22,9.60
2018,06,28,17,23,14.50
2018,06,28,17,24,14.50
2018,06,28,17,25,9.60
2018,06,28,17,26,9.60
2018,06,28,17,27,9.60
2018,06,28,17,28,4.80
2018,06,28,17,29,3.20
2018,06,28,17,30,6.40
2018,06,28,17,31,6.40
2018,06,28,17,32,11.30
2018,06,28,17,33,9.60
2018,06,28,17,34,11.30
2018,06,28,17,35,8.10
2018,06,28,17,36,4.80
2018,06,28,17,37,4.80
2018,06,28,17,38,9.60
2018,06,28,17,39,11.30
2018,06,28,17,40,9.60
2018,06,28,17,41,4.80
2018,06,28,17,42,3.20
2018,06,28,17,43,6.40
2018,06,28,17,44,8.10
2018,06,28,17,45,9.60
2018,06,28,17,46,3.20
2018,06,28,17,47,4.80
2018,06,28,17,48,9.60
2018,06,28,17,49,14.50
2018,06,28,17,50,9.60
2018,06,28,17,51,4.80
2018,06,28,17,52,4.80
2018,06,28,17,53,19.30
2018,06,28,17,54,11.30
2018,06,28,17,55,9.60
2018,06,28,17,56,16.10
2018,06,28,17,57,9.60
2018,06,28,17,58,4.80
2018,06,28,17,59,3.20
2018,06,28,18,00,11.30
2018,06,28,18,01,11.30
2018,06,28,18,02,6.40
2018,06,28,18,03,11.30
2018,06,28,18,04,4.80
2018,06,28,18,05,4.80
2018,06,28,18,06,8.10
2018,06,28,18,07,14.50
2018,06,28,18,08,14.50
2018,06,28,18,09,8.10
2018,06,28,18,10,6.40
2018,06,28,18,11,11.30
2018,06,28,18,12,8.10
2018,06,28,18,13,12.90
2018,06,28,18,14,6.40
2018,06,28,18,15,8.10
2018,06,28,18,16,9.60
2018,06,28,18,17,3.20
2018,06,28,18,18,4.80
2018,06,28,18,19,3.20
2018,06,28,18,20,4.80
2018,06,28,18,21,9.60
2018,06,28,18,22,6.40
2018,06,28,18,23,6.40
2018,06,28,18,24,6.40
2018,06,28,18,25,4.80
2018,06,28,18,26,4.80
2018,06,28,18,27,4.80
2018,06,28,18,28,4.80
2018,06,28,18,29,6.40
2018,06,28,18,30,4.80
2018,06,28,18,31,6.40
2018,06,28,18,32,4.80
2018,06,28,18,33,8.10
2018,06,28,18,34,9.60
2018,06,28,18,35,4.80
2018,06,28,18,36,6.40
2018,06,28,18,37,8.10
2018,06,28,18,38,9.60
2018,06,28,18,39,9.60
2018,06,28,18,40,1.60
2018,06,28,18,41,3.20
2018,06,28,18,42,1.60
2018,06,28,18,43,1.60
2018,06,28,18,44,4.80
2018,06,28,18,45,6.40
2018,06,28,18,46,8.10
2018,06,28,18,47,3.20
2018,06,28,18,48,3.20
2018,06,28,18,49,4.80
2018,06,28,18,50,3.20
2018,06,28,18,51,1.60
2018,06,28,18,52,4.80
2018,06,28,18,53,3.20
2018,06,28,18,54,6.40
2018,06,28,18,55,4.80
2018,06,28,18,56,3.20
2018,06,28,18,57,3.20
2018,06,28,18,58,8.10
2018,06,28,18,59,3.20
2018,06,28,19,00,3.20